Regional Weather Roundup
Issued by NWS State College, PA

Home | Current Version | Previous Version | Text Only | Print | Product List | Glossary On
Versions: 1 2 3 4 5 6 7 8 9 10 11 12 13 14 15 16 17 18 19 20 21 22 23 24 25 26 27 28 29 30 31 32 33 34 35 36 37 38 39 40 41 42 43 44 45 46 47 48 49 50
000
ASUS41 KCTP 262310
RWRCTP

REGIONAL WEATHER ROUNDUP
NATIONAL WEATHER SERVICE STATE COLLEGE PA
700 PM EDT THU MAY 26 2016

Note: "fair" indicates few or no clouds below 12,000 feet with no
significant weather and/or obstructions to visibility.

* = STATION THAT DOES NOT REPORT PRECIPITATION /E.G. RAIN...SNOW...ETC/
    THUNDER OR FOG.

PAZ002>004-007>009-013>016-020>023-029>032-270000-
WESTERN PENNSYLVANIA

CITY           SKY/WX    TMP DP  RH WIND       PRES   REMARKS
ERIE           MOSUNNY   80  63  55 NW3       29.95F
MEADVILLE      MOSUNNY   76  61  59 SW7       30.00S
FRANKLIN*      MOSUNNY   77  61  57 S10       30.03S
NEW CASTLE     MOCLDY    80  63  55 S8        30.00F
BEAVER COUNTY  MOSUNNY   77  63  61 S7G21     30.01F
BUTLER*        SUNNY     79  63  57 SW6       30.04F
PITTSBURGH INT MOSUNNY   80  59  48 S10       30.01F
PITTSBURGH     SUNNY     78  60  53 SW13      30.02S
INDIANA*       MOSUNNY   79  63  57 SW9       30.06S
LATROBE        PTSUNNY   81  64  57 S8        30.03F
WASHINGTON CO* SUNNY     75  64  69 S5        30.03F
$$

PAZ004>006-010>012-017>019-024>028-033>037-041-042-045-046-049>053-270000-
CENTRAL PENNSYLVANIA

CITY           SKY/WX    TMP DP  RH WIND       PRES   REMARKS
BRADFORD       MOSUNNY   78  59  51 SW8       30.04S
DUBOIS         CLOUDY    76  60  57 SW8       30.03F
CLEARFIELD     CLOUDY    78  59  51 S7        30.04S
JOHNSTOWN      MOSUNNY   75  57  53 S7        30.08F
ALTOONA        PTSUNNY   79  60  52 VRB5      30.06S
STATE COLLEGE  PTSUNNY   72  63  73 SW5       30.04F
WILLIAMSPORT   MOSUNNY   83  59  44 CALM      29.99S
SELINSGROVE    PTSUNNY   83  60  45 S3        30.00F
FT INDIANTOWN  PTSUNNY   80  69  68 N1        30.01S
CAPITAL CITY   CLOUDY    85  58  39 S6        30.00S
HARRISBURG     CLOUDY    79  63  57 SW5       30.00R
YORK           CLOUDY    82  64  54 SW3       30.01S
$$

PAZ038>040-043-044-047-048-054-055-060>062-067>071-270000-
EASTERN PENNSYLVANIA

CITY           SKY/WX    TMP DP  RH WIND       PRES   REMARKS
SCRANTON       CLOUDY    83  57  41 SW6       30.02F
MOUNT POCONO   CLOUDY    73  52  47 SW8       30.09S
ALLENTOWN      MOSUNNY   86  55  34 S10       30.01F
QUAKERTOWN*    CLEAR     84  57  39 SW6       30.04S
READING        CLOUDY    84  58  40 S7        30.01R
LANCASTER      CLOUDY    82  63  52 S10       30.01S
COATESVILLE    CLEAR     82  61  47 VRB5      30.06R
POTTSTOWN      PTSUNNY   84  57  39 S3        30.03F
BLUE BELL      SUNNY     82  59  44 S5        30.02S
DOYLESTOWN     SUNNY     84  51  31 SW5       30.02F
WILLOW GROVE   NOT AVBL
NORTH PHILA    SUNNY     88  57  34 SW7       30.03F
PHILADELPHIA   MOSUNNY   86  56  35 S12       30.02F
$$




USA.gov is the U.S. government's official web portal to all federal, state and local government web resources and services.